When you browse on this site, cookies collect data to enhance your experience and personalize the content and advertising you see.
Visit our Privacy Policy to learn more. By continuing to use the site, you agree to this use of cookies and data.
  • In Deutschland
  • Länderverzeichnis
  • Für 7 Tage
  • Wassertemperatur
  • Wetterkarte
  • Widgets
  • user-avatar
    Anmelden

    Stündliche Wetter Kapan

    Heute, 19 November, Dienstag

    Zeit Temperatur Niederschläge Wind Luftdruck Luftfeuchtigkeit
    00:00 +4°C° 0 mm 0 m/S 690 mmHg 64%
    01:00 +4°C° 0.1 mm 0 m/S 689 mmHg 68%
    02:00 +5°C° 0.1 mm 1 m/S 689 mmHg 72%
    03:00 +5°C° 0 mm 1 m/S 689 mmHg 80%
    04:00 +5°C° 0.4 mm 1 m/S 689 mmHg 84%
    05:00 +5°C° 0.4 mm 1 m/S 689 mmHg 87%
    06:00 +5°C° 0.4 mm 1 m/S 689 mmHg 91%
    07:00 +5°C° 0.3 mm 1 m/S 689 mmHg 89%
    08:00 +5°C° 0.3 mm 1 m/S 689 mmHg 88%
    09:00 +6°C° 0 mm 1 m/S 689 mmHg 86%
    10:00 +6°C° 0.3 mm 1 m/S 689 mmHg 84%
    11:00 +7°C° 0.3 mm 1 m/S 688 mmHg 83%
    12:00 +7°C° 0.3 mm 1 m/S 688 mmHg 81%
    13:00 +8°C° 0.1 mm 1 m/S 688 mmHg 77%
    14:00 +8°C° 0.1 mm 1 m/S 688 mmHg 73%
    15:00 +9°C° 0.1 mm 1 m/S 687 mmHg 68%
    16:00 +8°C° 0 mm 1 m/S 687 mmHg 70%
    17:00 +8°C° 0 mm 1 m/S 688 mmHg 72%
    18:00 +7°C° 0 mm 1 m/S 688 mmHg 74%
    19:00 +6°C° 0 mm 1 m/S 688 mmHg 73%
    20:00 +6°C° 0 mm 1 m/S 688 mmHg 72%
    21:00 +6°C° 0 mm 1 m/S 688 mmHg 71%
    22:00 +5°C° 0 mm 1 m/S 688 mmHg 69%
    23:00 +5°C° 0 mm 1 m/S 688 mmHg 67%

    Morgen, 20 November, Mittwoch

    Zeit Temperatur Niederschläge Wind Luftdruck Luftfeuchtigkeit
    00:00 +5°C° 0 mm 1 m/S 688 mmHg 64%
    01:00 +5°C° 0 mm 1 m/S 688 mmHg 61%
    02:00 +5°C° 0 mm 1 m/S 687 mmHg 58%
    03:00 +5°C° 0 mm 1 m/S 687 mmHg 55%
    04:00 +5°C° 0 mm 1 m/S 687 mmHg 53%
    05:00 +5°C° 0 mm 1 m/S 687 mmHg 52%
    06:00 +5°C° 0 mm 1 m/S 687 mmHg 50%
    07:00 +6°C° 0 mm 1 m/S 688 mmHg 47%
    08:00 +7°C° 0 mm 0 m/S 688 mmHg 43%
    09:00 +9°C° 0 mm 0 m/S 688 mmHg 40%
    10:00 +10°C° 0 mm 1 m/S 688 mmHg 39%
    11:00 +11°C° 0 mm 1 m/S 688 mmHg 38%
    12:00 +12°C° 0 mm 1 m/S 688 mmHg 37%
    13:00 +12°C° 0 mm 2 m/S 687 mmHg 39%
    14:00 +12°C° 0 mm 2 m/S 687 mmHg 41%
    15:00 +12°C° 0 mm 2 m/S 686 mmHg 43%
    16:00 +10°C° 0 mm 1 m/S 686 mmHg 50%
    17:00 +8°C° 0 mm 1 m/S 686 mmHg 58%
    18:00 +5°C° 0 mm 0 m/S 686 mmHg 65%
    19:00 +5°C° 0 mm 0 m/S 686 mmHg 66%
    20:00 +5°C° 0 mm 0 m/S 686 mmHg 67%
    21:00 +4°C° 0 mm 0 m/S 686 mmHg 67%
    22:00 +4°C° 0 mm 0 m/S 686 mmHg 69%
    23:00 +4°C° 0 mm 0 m/S 686 mmHg 71%

    übermorgen, 21 November, Donnerstag

    Zeit Temperatur Niederschläge Wind Luftdruck Luftfeuchtigkeit
    00:00 +3°C° 0 mm 0 m/S 685 mmHg 73%
    01:00 +3°C° 0 mm 0 m/S 685 mmHg 74%
    02:00 +3°C° 0 mm 0 m/S 685 mmHg 75%
    03:00 +2°C° 0 mm 0 m/S 685 mmHg 76%
    04:00 +3°C° 0 mm 0 m/S 685 mmHg 77%
    05:00 +3°C° 0 mm 0 m/S 685 mmHg 79%
    06:00 +3°C° 0 mm 0 m/S 685 mmHg 80%
    07:00 +4°C° 0.1 mm 1 m/S 686 mmHg 82%
    08:00 +5°C° 0.1 mm 1 m/S 686 mmHg 83%
    09:00 +5°C° 0.1 mm 1 m/S 686 mmHg 84%
    10:00 +5°C° 0 mm 1 m/S 686 mmHg 84%
    11:00 +4°C° 0 mm 2 m/S 686 mmHg 84%
    12:00 +5°C° 0 mm 2 m/S 685 mmHg 84%
    13:00 +5°C° 0.1 mm 2 m/S 685 mmHg 85%
    14:00 +4°C° 0.1 mm 2 m/S 685 mmHg 87%
    15:00 +4°C° 0.1 mm 2 m/S 685 mmHg 88%
    16:00 +4°C° 0.1 mm 2 m/S 685 mmHg 90%
    17:00 +3°C° 0.1 mm 2 m/S 686 mmHg 92%
    18:00 +3°C° 0.1 mm 2 m/S 686 mmHg 94%
    19:00 +3°C° 0.1 mm 2 m/S 686 mmHg 94%
    20:00 +3°C° 0.1 mm 2 m/S 687 mmHg 94%
    21:00 +2°C° 0.1 mm 2 m/S 687 mmHg 94%
    22:00 +2°C° 0.3 mm 2 m/S 688 mmHg 95%
    23:00 +2°C° 0.3 mm 2 m/S 688 mmHg 95%

    22 November, Freitag

    Zeit Temperatur Niederschläge Wind Luftdruck Luftfeuchtigkeit
    00:00 +2°C° 0.3 mm 2 m/S 688 mmHg 95%
    01:00 +2°C° 0.4 mm 2 m/S 688 mmHg 95%
    02:00 +2°C° 0.4 mm 2 m/S 689 mmHg 95%
    03:00 +1°C° 0.4 mm 2 m/S 689 mmHg 95%
    04:00 +1°C° 0.3 mm 2 m/S 689 mmHg 95%
    05:00 +1°C° 0.3 mm 2 m/S 689 mmHg 95%
    06:00 +2°C° 0.3 mm 1 m/S 690 mmHg 96%
    07:00 +2°C° 0.3 mm 1 m/S 690 mmHg 94%
    08:00 +2°C° 0.3 mm 1 m/S 690 mmHg 93%
    09:00 +2°C° 0.3 mm 1 m/S 691 mmHg 91%
    10:00 +3°C° 0.2 mm 1 m/S 691 mmHg 90%
    11:00 +2°C° 0.2 mm 2 m/S 690 mmHg 90%
    12:00 +2°C° 0.2 mm 2 m/S 690 mmHg 89%
    13:00 +2°C° 0.1 mm 2 m/S 690 mmHg 89%
    14:00 +2°C° 0.1 mm 2 m/S 690 mmHg 90%
    15:00 +2°C° 0.1 mm 2 m/S 689 mmHg 91%
    16:00 +2°C° 0.1 mm 2 m/S 690 mmHg 92%
    17:00 +2°C° 0.1 mm 1 m/S 690 mmHg 93%
    18:00 +2°C° 0.1 mm 1 m/S 690 mmHg 94%
    19:00 +1°C° 0.1 mm 1 m/S 690 mmHg 95%
    20:00 +1°C° 0.1 mm 1 m/S 690 mmHg 95%
    21:00 +1°C° 0.1 mm 1 m/S 691 mmHg 95%
    22:00 +1°C° 0 mm 1 m/S 691 mmHg 94%
    23:00 0°C° 0 mm 0 m/S 691 mmHg 93%

    23 November, Samstag

    Zeit Temperatur Niederschläge Wind Luftdruck Luftfeuchtigkeit
    00:00 -1°C° 0 mm 0 m/S 691 mmHg 92%
    01:00 -1°C° 0 mm 0 m/S 690 mmHg 92%
    02:00 -1°C° 0 mm 0 m/S 690 mmHg 91%
    03:00 -1°C° 0 mm 0 m/S 690 mmHg 91%
    04:00 -1°C° 0 mm 0 m/S 690 mmHg 90%
    05:00 -2°C° 0 mm 0 m/S 690 mmHg 89%
    06:00 -2°C° 0 mm 0 m/S 690 mmHg 89%
    07:00 -1°C° 0 mm 0 m/S 691 mmHg 86%
    08:00 +1°C° 0 mm 1 m/S 691 mmHg 84%
    09:00 +2°C° 0 mm 1 m/S 691 mmHg 81%
    10:00 +2°C° 0 mm 1 m/S 691 mmHg 80%
    11:00 +3°C° 0 mm 1 m/S 691 mmHg 79%
    12:00 +4°C° 0 mm 1 m/S 690 mmHg 78%
    13:00 +4°C° 0 mm 1 m/S 690 mmHg 79%
    14:00 +3°C° 0 mm 2 m/S 690 mmHg 80%
    15:00 +3°C° 0 mm 2 m/S 689 mmHg 81%
    16:00 +3°C° 0 mm 1 m/S 689 mmHg 85%
    17:00 +2°C° 0 mm 1 m/S 689 mmHg 89%
    18:00 +2°C° 0 mm 1 m/S 689 mmHg 93%
    19:00 +2°C° 0 mm 1 m/S 689 mmHg 93%
    20:00 +1°C° 0 mm 1 m/S 689 mmHg 93%
    21:00 0°C° 0 mm 0 m/S 689 mmHg 93%
    22:00 0°C° 0 mm 0 m/S 689 mmHg 92%
    23:00 0°C° 0 mm 0 m/S 689 mmHg 92%

    24 November, Sonntag

    Zeit Temperatur Niederschläge Wind Luftdruck Luftfeuchtigkeit
    00:00 0°C° 0 mm 0 m/S 689 mmHg 91%
    01:00 -1°C° 0 mm 0 m/S 689 mmHg 90%
    02:00 -1°C° 0 mm 0 m/S 689 mmHg 89%
    03:00 -1°C° 0 mm 0 m/S 688 mmHg 88%
    04:00 -1°C° 0 mm 0 m/S 688 mmHg 87%
    05:00 -1°C° 0 mm 0 m/S 688 mmHg 86%
    06:00 -2°C° 0 mm 0 m/S 688 mmHg 85%
    07:00 0°C° 0 mm 0 m/S 689 mmHg 82%
    08:00 +1°C° 0 mm 0 m/S 689 mmHg 78%
    09:00 +2°C° 0 mm 0 m/S 689 mmHg 75%
    10:00 +4°C° 0 mm 1 m/S 689 mmHg 74%
    11:00 +5°C° 0 mm 1 m/S 689 mmHg 74%
    12:00 +6°C° 0 mm 1 m/S 688 mmHg 73%
    13:00 +6°C° 0 mm 1 m/S 688 mmHg 74%
    14:00 +6°C° 0 mm 1 m/S 688 mmHg 75%
    15:00 +6°C° 0 mm 1 m/S 687 mmHg 76%
    16:00 +5°C° 0 mm 1 m/S 687 mmHg 80%
    17:00 +4°C° 0 mm 1 m/S 687 mmHg 85%
    18:00 +3°C° 0 mm 1 m/S 688 mmHg 89%
    19:00 +2°C° 0 mm 0 m/S 688 mmHg 88%
    20:00 +2°C° 0 mm 0 m/S 688 mmHg 87%
    21:00 +1°C° 0 mm 0 m/S 688 mmHg 86%
    22:00 +1°C° 0 mm 0 m/S 688 mmHg 85%
    23:00 +1°C° 0 mm 0 m/S 687 mmHg 85%
    Mehr zeigen